Regional Weather Roundup
Issued by NWS

Home | Current Version | Previous Version | Graphics & Text | Print | Product List | Glossary On
Versions: 1 2 3 4 5 6 7 8 9 10 11 12 13 14 15 16 17 18 19 20 21 22 23 24 25 26 27 28 29 30 31 32 33 34 35 36 37 38 39 40 41 42 43 44 45 46 47 48 49 50
503
ASUS43 KDMX 231808
RWRIA

WEATHER ROUNDUP FOR IOWA
NATIONAL WEATHER SERVICE DES MOINES IA
100 PM CDT MON MAY 23 2016

NOTE: "FAIR" INDICATES FEW OR NO CLOUDS BELOW 12,000 FEET WITH NO
SIGNIFICANT WEATHER AND/OR OBSTRUCTIONS TO VISIBILITY.

* - THESE STATIONS ARE NOT NWS STATIONS...THUS NOT UNDER NWS
QUALITY CONTROL.  THEY ALSO DO NOT REPORT WEATHER SUCH
AS PRECIPITATION OR FOG.

IAZ001>003-012>014-020>022-031>034-043>046-231900-
   NORTHWEST IOWA

CITY           SKY/WX    TMP DP  RH WIND       PRES   REMARKS
CARROLL *      CLOUDY    73  64  73 S16G22    29.81F
CHEROKEE *     PTSUNNY   71  66  82 S14G21    29.79S
DENISON *      PTSUNNY   73  64  73 S9G17     29.76F
LE MARS *      CLOUDY    73  68  83 S14       29.77F
ORANGE CITY *  CLOUDY    72  66  83 S15       29.79S
SHELDON *      PTSUNNY   72  64  78 S18G28    29.78R
SIOUX CITY     CLOUDY    76  66  71 S16G23    29.77S
6HR MIN TEMP:  62; 6HR MAX TEMP:  76; 6HR PCP:  0.07;

SPENCER        CLOUDY    75  63  66 S22G29    29.77R
6HR MIN TEMP:  60; 6HR MAX TEMP:  76; 6HR PCP:  0.05;

STORM LAKE *   MOSUNNY   72  61  68 S20G30    29.79F
$$

IAZ055>058-069>071-079>083-090>094-231900-
   SOUTHWEST IOWA

CITY           SKY/WX    TMP DP  RH WIND       PRES   REMARKS
ATLANTIC *     CLOUDY    77  63  61 S18G24    29.82F
AUDUBON *        N/A     75  64  69 S9G18     29.83F
CLARINDA *       N/A     70  63  78 MISG      29.87F
COUNCIL BLFS * LGT RAIN  68  66  94 SE9       29.80F
CRESTON *      PTSUNNY   66  63  88 S18       29.90S
HARLAN  *        N/A    N/A N/A N/A MISG        N/A
LAMONI         CLOUDY    71  59  65 S13       29.90F
6HR MIN TEMP:  60; 6HR MAX TEMP:  73;

RED OAK *      CLOUDY    75  63  64 S16       29.84F
SHENANDOAH *   CLOUDY    75  63  64 SE15      29.84F
$$

IAZ047>049-059>061-072>074-084-231900-
   CENTRAL IOWA

CITY           SKY/WX    TMP DP  RH WIND       PRES   REMARKS
AMES           CLOUDY    75  61  61 S18G25    29.85F
6HR MIN TEMP:  59; 6HR MAX TEMP:  78;

ANKENY *       CLOUDY    77  61  57 S13G23    29.87F
BOONE *        CLOUDY    79  61  53 S18G28    29.83F HX  80
CHARITON *     MOSUNNY   79  59  50 S20G30    29.90S HX  80
DES MOINES     CLOUDY    75  59  57 S23       29.88S
6HR MIN TEMP:  62; 6HR MAX TEMP:  76;

GRINNELL*      MOSUNNY   81  55  41 S16G23    29.90S HX  80
KNOXVILLE *    CLOUDY    77  57  50 S21       29.88F
MARSHALLTOWN   CLOUDY    78  58  49 S20       29.87S
6HR MIN TEMP:  63; 6HR MAX TEMP:  80;

NEWTON *       CLOUDY    81  57  44 S18G26    29.89R HX  81
PERRY *        CLOUDY    77  59  53 S22G29    29.84S
$$

IAZ004>006-015-016-023>025-035-036-231900-
   NORTH CENTRAL IOWA

CITY           SKY/WX    TMP DP  RH WIND       PRES   REMARKS
ALGONA *       MOSUNNY   66  59  77 S23       29.81R
ESTHERVILLE    MOSUNNY   73  62  68 S24G37    29.78R
6HR MIN TEMP:  60; 6HR MAX TEMP:  75; 6HR PCP:  0.01;

FORT DODGE *   CLOUDY    63  57  82 S7        29.86R THUNDER
MASON CITY     CLOUDY    74  59  59 S20G31    29.85S
6HR MIN TEMP:  63; 6HR MAX TEMP:  76;

FOREST CITY *  LGT RAIN  68  57  68 S20G28    29.82R
WEBSTER CITY * CLOUDY    75  61  60 S12       29.82F
IOWA FALLS *   CLOUDY    77  59  53 S20       29.87F
$$

IAZ007>011-017>019-026>030-037>042-050>054-066-231900-
   NORTHEAST IOWA

CITY           SKY/WX    TMP DP  RH WIND       PRES   REMARKS
CEDAR RAPIDS   CLOUDY    82  51  34 S22G28    29.90F HX  81
6HR MIN TEMP:  60; 6HR MAX TEMP:  82;

CHARLES CITY * PTSUNNY   82  55  39 S20G31    29.85F HX  82
CLINTON *      SUNNY     82  48  30 S14       29.95F HX  81
DECORAH *      SUNNY     79  52  38 S12G23    29.87F
DUBUQUE        SUNNY     80  45  28 S18G24    29.94F
6HR MIN TEMP:  61; 6HR MAX TEMP:  80;

MONTICELLO *   SUNNY     82  45  26 S20G25    29.91F HX  80
OELWEIN *      MOSUNNY   82  54  36 S20G29    29.89F HX  81
WATERLOO       MOSUNNY   83  55  38 S21G26    29.86F HX  82
6HR MIN TEMP:  60; 6HR MAX TEMP:  83;

$$

IAZ064-065-067-068-078-231900-
   EAST CENTRAL IOWA

CITY           SKY/WX    TMP DP  RH WIND       PRES   REMARKS
DAVENPORT      CLOUDY    83  44  25 S15G22    29.95F HX  81
6HR MIN TEMP:  62; 6HR MAX TEMP:  83;

IOWA CITY      SUNNY     82  49  31 S17G24    29.93F HX  81
6HR MIN TEMP:  60; 6HR MAX TEMP:  82;

MT. PLEASANT * SUNNY     85  48  28 SE17G25   29.93F HX  82
MUSCATINE *    SUNNY     82  48  30 S16       29.93F HX  81
QUAD CITIES    CLOUDY    83  46  27 S10G20    29.94F HX  81
6HR MIN TEMP:  63; 6HR MAX TEMP:  84;

$$

IAZ062-063-075>077-085>089-095>099-231900-
   SOUTHEAST IOWA

CITY           SKY/WX    TMP DP  RH WIND       PRES   REMARKS
BURLINGTON     SUNNY     82  49  31 S18G24    29.94F HX  81
6HR MIN TEMP:  62; 6HR MAX TEMP:  82;

FAIRFIELD *      N/A    N/A N/A N/A MISG        N/A
FORT MADISON * SUNNY     82  48  30 S16       29.94F HX  81
KEOKUK *       SUNNY     81  50  34 S15G22    29.92F HX  80
OSKALOOSA *      N/A     82  54  37 S10G24    29.91F HX  81
OTTUMWA        MOSUNNY   80  55  42 S15       29.91S HX  80
6HR MIN TEMP:  61; 6HR MAX TEMP:  81;

WASHINGTON *   SUNNY     84  50  30 S18G25    29.93S HX  82
$$

ABBREVIATIONS USED IN REMARKS
   TC - TEMPERATURES IN CELSIUS
  WCI - WIND CHILL INDEX
   HX - HEAT INDEX
  VSB - VISIBILITY
$$





USA.gov is the U.S. government's official web portal to all federal, state and local government web resources and services.